Location: Colonia Mina de C?rbuni
(46.1667°N, 22.7167°E)
Time: 10:51:03
(UTC+00:00)

Lacrosse 5 - Visible Passes

Search period start: 19 May 2025 00:00
Search period end: 29 May 2025 00:00
Orbit: 714 x 724 km, 57.0° (Epoch: 09 March)

Date Brightness Start Highest point End Pass type
(mag) Time Alt. Az. Time Alt. Az. Time Alt. Az.
19 May 2.1 01:24:17 10° WNW 01:29:07 45° SW 01:33:55 10° SSE visible
19 May 3.5 19:19:33 10° W 19:24:20 38° NNW 19:29:06 10° NE visible
19 May 4.2 21:04:20 10° NW 21:08:28 24° N 21:12:35 10° NE visible
19 May 3.5 22:48:01 10° NW 22:52:40 34° NNE 22:57:18 10° E visible
20 May 1.7 00:30:58 10° NW 00:36:03 77° SW 00:41:07 10° SE visible
20 May 4.1 20:10:36 10° WNW 20:14:50 25° N 20:19:05 10° NE visible
20 May 3.9 21:54:46 10° NW 21:59:09 28° NNE 22:03:30 10° ENE visible
20 May 2.1 23:37:47 10° NW 23:42:53 68° NE 23:47:55 10° ESE visible
21 May 2.8 01:21:18 10° WNW 01:25:30 26° SW 01:29:40 10° S visible
21 May 3.9 19:16:47 10° WNW 19:21:16 30° NNW 19:25:46 10° NE visible
21 May 4.1 21:01:22 10° NW 21:05:32 25° N 21:09:43 10° ENE visible
21 May 2.9 22:44:39 10° NW 22:49:33 46° NNE 22:54:27 10° ESE visible
22 May 2.1 00:27:44 10° WNW 00:32:35 46° SW 00:36:14 17° SSE visible
22 May 4.2 20:07:47 10° NW 20:11:55 24° N 20:16:02 10° NE visible
22 May 3.4 21:51:29 10° NW 21:56:08 34° NNE 22:00:45 10° E visible
22 May 1.7 23:34:25 10° NW 23:39:31 77° SW 23:42:12 28° SE visible
23 May 3.5 01:18:58 10° W 01:21:15 15° WSW 01:21:15 15° WSW visible
23 May 4.1 19:14:02 10° WNW 19:18:17 26° N 19:22:32 10° NE visible
23 May 3.8 20:58:13 10° NW 21:02:36 28° NNE 21:06:57 10° ENE visible
23 May 2.1 22:41:15 10° NW 22:46:20 68° NE 22:49:21 24° ESE visible
24 May 2.9 00:24:45 10° WNW 00:28:28 26° WSW 00:28:28 26° WSW visible
24 May 4.0 20:04:49 10° NW 20:09:00 25° N 20:13:10 10° ENE visible
24 May 2.8 21:48:06 10° NW 21:53:01 46° NNE 21:56:59 15° E visible
24 May 2.1 23:31:11 10° WNW 23:36:02 46° SW 23:36:07 46° SW visible
25 May 4.1 19:11:14 10° NW 19:15:22 24° N 19:19:30 10° NE visible
25 May 3.4 20:54:57 10° NW 20:59:35 34° NNE 21:04:12 10° E visible
25 May 1.7 22:37:53 10° NW 22:42:59 78° SW 22:44:01 56° SSE visible
26 May 3.9 00:22:23 10° W 00:23:09 12° W 00:23:09 12° W visible
26 May 3.7 20:01:41 10° NW 20:06:03 27° NNE 20:10:24 10° ENE visible
26 May 2.1 21:44:42 10° NW 21:49:47 67° NE 21:52:04 32° ESE visible
26 May 3.2 23:28:11 10° WNW 23:31:13 24° WSW 23:31:13 24° WSW visible
27 May 4.0 19:08:15 10° NW 19:12:27 25° N 19:16:37 10° ENE visible
27 May 2.8 20:51:34 10° NW 20:56:28 45° NNE 21:00:14 16° E visible
27 May 2.2 22:34:38 10° WNW 22:39:24 46° SW 22:39:24 46° SW visible
28 May 3.3 19:58:23 10° NW 20:03:02 34° NNE 20:07:39 10° E visible
28 May 1.7 21:41:20 10° NW 21:46:27 79° SW 21:47:41 52° SSE visible
28 May 4.0 23:25:48 10° W 23:26:50 13° W 23:26:50 13° W visible
